Regional Weather Roundup
Issued by NWS

Home | Current Version | Previous Version | Graphics & Text | Print | Product List | Glossary On
Versions: 1 2 3 4 5 6 7 8 9 10 11 12 13 14 15 16 17 18 19 20 21 22 23 24 25 26 27
000
ASUS45 KPSR 280810
RWRAZ

ARIZONA HOURLY REGIONAL WEATHER ROUNDUP
NATIONAL WEATHER SERVICE PHOENIX AZ
100 AM MST SAT MAY 28 2016

NOTE: FAIR INDICATES FEW OR NO CLOUDS BELOW 12,000 FEET WITH NO
SIGNIFICANT WEATHER AND/OR OBSTRUCTIONS TO VISIBILITY.

AZZ001>003-036-280900-
NORTHWEST ARIZONA

CITY           SKY/WX    TMP DP  RH WIND       PRES   REMARKS
KINGMAN        CLEAR     66  28  24 S10       29.90S
$$

AZZ004>008-015-016-018-280900-
NORTH CENTRAL ARIZONA

CITY           SKY/WX    TMP DP  RH WIND       PRES   REMARKS
GRAND CANYON   CLEAR     36  23  59 CALM      30.08S
WILLIAMS       PTCLDY    43  27  52 S6        30.16R
PRESCOTT       PTCLDY    57  28  33 SW3       30.01R
FLAGSTAFF      CLEAR     38  28  67 CALM      30.11R
PAYSON         CLEAR     55  27  33 CALM      30.03F
PAGE           CLEAR     64  32  30 S3        29.93S
$$

AZZ009>014-017-280900-
NORTHEAST ARIZONA

CITY           SKY/WX    TMP DP  RH WIND       PRES   REMARKS
WINSLOW        PTCLDY    58  28  32 SW3       29.99S
SAINT JOHNS    PTCLDY    56  25  30 SW13      30.03R
WINDOW ROCK    CLEAR     43  22  43 N3        30.07S
SHOW LOW       CLEAR     50  23  34 S9        30.09S
$$

AZZ023-280900-
GREATER PHOENIX AREA

CITY           SKY/WX    TMP DP  RH WIND       PRES   REMARKS
PHOENIX        CLEAR     78  36  21 CALM      29.77R
BUCKEYE        CLEAR     72  28  20 CALM      29.80S
LUKE AFB       CLEAR     78  34  20 E5        29.77R
DEER VALLEY    CLEAR     72  28  19 CALM      29.79S
SCOTTSDALE     CLEAR     75  33  21 CALM      29.81S
MESA-GATEWAY   CLEAR     64  32  29 SE8       29.80S
$$

AZZ027-028-280900-
SOUTHWEST MARICOPA COUNTY AND PINAL COUNTY

CITY           SKY/WX    TMP DP  RH WIND       PRES   REMARKS
CASA GRANDE    CLEAR     72  28  20 W5        29.81S
GILA BEND      FAIR      74  27  17 S6        29.77S
$$

AZZ503-504-507>509-280900-
SOUTHEAST ARIZONA

CITY           SKY/WX    TMP DP  RH WIND       PRES   REMARKS
TUCSON         CLEAR     68  25  19 SE3       29.90R
DAVIS-MONTHAN  CLEAR     65  25  21 S6        29.88S
NOGALES        CLEAR     59  23  25 SE3       29.96S
SIERRA VISTA   CLEAR     60  19  20 SE6       30.01R
DOUGLAS        CLEAR     57  17  21 W6        29.97S
SAFFORD        CLEAR     65  23  20 CALM      29.89R
$$

AZZ020-021-025-026-031-280900-
SOUTHWEST ARIZONA

CITY           SKY/WX    TMP DP  RH WIND       PRES   REMARKS
YUMA           CLEAR     72  42  34 S6        29.75S
$$

CAZ031-033-041-043-047-048-061-280900-
SOUTHERN CALIFORNIA

CITY           SKY/WX    TMP DP  RH WIND       PRES   REMARKS
DOWNTOWN L.A.  CLOUDY    61  54  77 CALM      29.88S
L.A. AIRPORT   CLOUDY    60  55  83 CALM      29.88S
SAN DIEGO      CLOUDY    64  55  72 CALM      29.89F
BURBANK        MOCLDY    58  53  84 S3        29.87S
ONTARIO        CLEAR     59  54  83 SW6       29.87F
RIVERSIDE      CLEAR     60  54  80 CALM      29.88F
PALM SPRINGS   CLEAR     76  49  38 CALM      29.77S
EL CENTRO NAS  CLEAR     73  44  35 SW8       29.74S
IMPERIAL       CLEAR     70  46  42 W6        29.71F
BLYTHE         CLEAR     79  37  22 SW5       29.75S
NEEDLES        CLEAR     82  37  20 SW8       29.74S
$$

NVZ020-UTZ003-280900-
SOUTHERN NEVADA-UTAH

CITY           SKY/WX    TMP DP  RH WIND       PRES   REMARKS
LAS VEGAS      CLEAR     76  25  15 S5        29.75S
SALT LAKE CITY MOCLDY    57  45  64 SW3       29.97R
$$

NMZ009-TXZ055-280900-
NEW MEXICO-WEST TEXAS

CITY           SKY/WX    TMP DP  RH WIND       PRES   REMARKS
ALBUQUERQUE    PTCLDY    57  24  28 S5        30.00R
EL PASO        CLEAR     62  19  19 SE6       29.92S
$$


........................KEY........................
SKY/WX - SKY CONDITION/WEATHER
TMP    - TEMPERATURE IN FAHRENHEIT
DP     - DEW POINT IN FAHRENHEIT
RH     - RELATIVE HUMIDITY IN PERCENT
WIND   - DIRECTION AND SPEED IN MILES PER HOUR (MPH)
VRB    - VARIABLE WIND DIRECTION
PRES   - MEAN SEA LEVEL PRESSURE IN INCHES OF MERCURY
         F - FALLING PRESSURE   R - RISING PRESSURE
         S - STEADY PRESSURE
VSB    - VISIBILITY IN MILES
HX     - HEAT INDEX IN FAHRENHEIT
WCI    - WIND CHILL INDEX IN FAHRENHEIT
TC     - TEMPERATURE IN CELSIUS WHICH IS ALSO KNOWN AS
         TEMPERATURE IN CENTIGRADE
AFB    - AIR FORCE BASE
         LUKE AFB IS LUKE AIR FORCE BASE
         DAVIS-MONTHAN IS DAVIS-MONTHAN AIR FORCE BASE
NAS    - NAVAL AIR STATION
         EL CENTRO NAS IS EL CENTRO NAVAL AIR STATION
N/A    - NOT AVAILABLE





USA.gov is the U.S. government's official web portal to all federal, state and local government web resources and services.